Weather in Gadabay

Azerbaijan     40°34′28″N   45°48′27″E
temp.,
°C
wind,
m/s
gust,
m/s
humid.,
%
clouds,
%
prec.,
mm/h
press.,
hPa
HPBL,
m
28 september, tue
tue2801:00+5sse11860 0.0 101711
04:00+4s11870 0.0 101710
07:00+4s11830 0.0 101610
10:00+9nne31620 0.0 1015612
13:00+13nne43528 0.0 10141065
16:00+12nne436785 0.0 1015855
19:00+7ne229190 0.1 1018313
22:00+8ne118676 0.1 1019332
29 september, wed
wed2901:00+7ne229488 0.0 1019207
04:00+7ne229795 0.1 1018192
07:00+7ne219587 0.1 1018239
10:00+9ne228284 0.2 1018548
13:00+11nne427285 0.1 1017746
16:00+10ne338694 0.4 1017504
19:00+8nne229695 0.1 1017258
22:00+7nne2298100 0.3 1018243
30 september, thu
thu3001:00+7ne119798 0.1 1017286
04:00+7ne2197100 0.1 1017235
07:00+7ene1194100 0.0 1017116
10:00+9nne317977 0.1 1017546
13:00+10nne437896 0.1 1016653
16:00+8n3393100 0.6 1016471
19:00+7n2398100 2.1 1018268
22:00+5nw4496100 7.5 1020574
1 october, fri
fri101:00+3s2296100 16.3 1023133
04:00+4wsw0195100 18.1 1022351
07:00+4ene1196100 0.7 1023359
10:00+4nne1196100 1.0 1023421
13:00+5nne2196100 0.5 1023306
16:00+5nne2297100 0.8 1023322
19:00+5nne2299100 0.3 1024204
22:00+5nne2299100 0.7 1024238
2 october, sat
sat201:00+4nne2299100 0.4 1025238
04:00+4nne1199100 0.6 1025217
07:00+4nne2299100 0.1 1024463
10:00+4nne2299100 0.3 1025310
13:00+4nne2298100 0.1 1025448
16:00+3n2198100 0.2 1026469
19:00+3nne2299100 0.1 1028364
22:00+3ne1299100 0.1 1028355